Location: Herksen
(52.4316°N, 6.1319°E)
Time: 11:21:21
(UTC+00:00)

Cosmos 1898 Rocket - Pass Details

Date: 15 May 2026
Orbit: 750 x 778 km, 74.0° (Epoch: 6 June)

Event Time Altitude Azimuth Distance (km) Brightness Sun altitude
Rises 22:55:06 0° 331° (NNW) 3,217 8.0 -18.1°
Reaches altitude 10° 22:57:31 10° 325° (NW) 2,291 6.9 -18.1°
Maximum altitude 23:02:28 47° 253° (WSW) 1,000 4.0 -18.2°
Enters shadow 23:04:34 31° 200° (SSW) 1,325 4.2 -18.3°
